Retour au catalogue

LINK

ActifScienceVLEO
NORAD 69792·PAYLOAD·🇺🇸 United States

Lancé Jul 3, 2026 depuis Ronald Reagan Space and Missile Test Range

Loading…

Prochains Passages (prochaines 24 heures)

TLE

FraisSource: Space-Track

Époque: Sep 14, 2026, 00:41 UTC

1 69792U 26152A   26257.02905887  .00569573  00000-0  16354-2 0  9996
2 69792  20.5882 212.0305 0009227 323.6507  36.3317 15.90507813 11474

Suivez LINK en temps réel avec AllMySat

Download on the App Store